Tracking 23645 objects as of 21-Sep-2021
HD Live streaming from Space Station
objects crossing your sky now

STARLINK-2018

Track STARLINK-2018 now!
10-day predictions
STARLINK-2018 is classified as:


NORAD ID: 47640
Int'l Code: 2021-012W
Perigee: 553.0 km
Apogee: 555.6 km
Inclination: 53.1 °
Period: 95.6 minutes
Semi major axis: 6925 km
RCS: Unknown
Launch date: February 16, 2021
Source: United States (US)
Launch site: AIR FORCE EASTERN TEST RANGE (AFETR)
aabbcc
Your satellite tracking list
Your tracking list is empty




NASA's NSSDC Master Catalog

Two Line Element Set (TLE):
1 47640U 21012W   21264.91667824 -.00026218  00000-0 -17472-2 0  9999
2 47640  53.0548 187.9567 0001882  72.4853 267.6447 15.06409815 33820
Source of the keplerian elements: AFSPC